Stations météo

Publicité
Mahdia, Tunisie (60742): Température de l'air & dewpoint: 12.08.2019 12:00:00 - 18.08.2019 12:00:00 (CET)Mahdia, Tunisie (60742): Vitesse du vent: 12.08.2019 12:00:00 - 18.08.2019 12:00:00 (CET)Mahdia, Tunisie (60742): Direction du vent: 12.08.2019 12:00:00 - 18.08.2019 12:00:00 (CET)Mahdia, Tunisie (60742): reduced air pressure: 12.08.2019 12:00:00 - 18.08.2019 12:00:00 (CET)Mahdia, Tunisie (60742): visibility: 12.08.2019 12:00:00 - 18.08.2019 12:00:00 (CET)
Date & Time tt [°C] td [°C] ff [km/h] ff [knt] dd ppp [hPa] vv [km]
18.08.2019 12:00:00 - - - - - - -
18.08.2019 11:00:00 - - - - - - -
18.08.2019 10:00:00 30,0 24,2 15 8 ESE 1015,9 10
18.08.2019 09:00:00 - - - - - - -
18.08.2019 08:00:00 - - - - - - -
18.08.2019 07:00:00 26,4 23,7 5 3 S 1014,9 10
18.08.2019 06:00:00 - - - - - - -
18.08.2019 05:00:00 - - - - - - -
18.08.2019 04:00:00 25,1 22,4 4 2 SSW 1015,4 -
18.08.2019 03:00:00 - - - - - - -
18.08.2019 02:00:00 - - - - - - -
18.08.2019 01:00:00 25,9 22,6 5 3 SW 1016,6 -
18.08.2019 00:00:00 - - - - - - -
17.08.2019 23:00:00 - - - - - - -
17.08.2019 22:00:00 26,8 22,8 8 4 SSE 1016,2 -
17.08.2019 21:00:00 - - - - - - -
17.08.2019 20:00:00 - - - - - - -
17.08.2019 19:00:00 27,3 23,1 13 7 E 1015,7 -
17.08.2019 18:00:00 - - - - - - -
17.08.2019 17:00:00 - - - - - - -
17.08.2019 16:00:00 29,0 23,4 16 9 E 1015,8 -
17.08.2019 15:00:00 - - - - - - -
17.08.2019 14:00:00 - - - - - - -
17.08.2019 13:00:00 28,4 23,5 21 11 NE 1016,8 -
17.08.2019 12:00:00 - - - - - - -
17.08.2019 11:00:00 - - - - - - -
17.08.2019 10:00:00 28,2 21,7 11 6 ENE 1017,5 10
17.08.2019 09:00:00 - - - - - - -
17.08.2019 08:00:00 - - - - - - -
17.08.2019 07:00:00 25,8 20,8 4 2 WSW 1016,8 10
17.08.2019 06:00:00 - - - - - - -
17.08.2019 05:00:00 - - - - - - -
17.08.2019 04:00:00 25,5 21,4 5 3 SW 1016,8 -
17.08.2019 03:00:00 - - - - - - -
17.08.2019 02:00:00 - - - - - - -
17.08.2019 01:00:00 26,5 22,1 2 1 NW 1017,4 -
17.08.2019 00:00:00 - - - - - - -
16.08.2019 23:00:00 - - - - - - -
16.08.2019 22:00:00 27,0 22,0 8 4 NE 1017,5 -
16.08.2019 21:00:00 - - - - - - -
16.08.2019 20:00:00 - - - - - - -
16.08.2019 19:00:00 27,7 22,2 11 6 ENE 1015,9 10
16.08.2019 18:00:00 - - - - - - -
16.08.2019 17:00:00 - - - - - - -
16.08.2019 16:00:00 28,4 20,1 18 10 NE 1016,1 10
16.08.2019 15:00:00 - - - - - - -
16.08.2019 14:00:00 - - - - - - -
16.08.2019 13:00:00 28,9 19,8 16 9 N 1016,8 10
16.08.2019 12:00:00 - - - - - - -
16.08.2019 11:00:00 - - - - - - -
16.08.2019 10:00:00 27,7 19,5 8 4 NW 1017,5 10
16.08.2019 09:00:00 - - - - - - -
16.08.2019 08:00:00 - - - - - - -
16.08.2019 07:00:00 24,8 17,0 8 4 W 1017,2 10
16.08.2019 06:00:00 - - - - - - -
16.08.2019 05:00:00 - - - - - - -
16.08.2019 04:00:00 25,7 19,6 11 6 NW 1016,5 -
16.08.2019 03:00:00 - - - - - - -
16.08.2019 02:00:00 - - - - - - -
16.08.2019 01:00:00 26,2 20,7 13 7 NNW 1017,4 -
16.08.2019 00:00:00 - - - - - - -
15.08.2019 23:00:00 - - - - - - -
15.08.2019 22:00:00 26,9 20,3 16 9 NNW 1017,8 -
15.08.2019 21:00:00 - - - - - - -
15.08.2019 20:00:00 - - - - - - -
15.08.2019 19:00:00 27,7 20,8 16 9 N 1016,3 -
15.08.2019 18:00:00 - - - - - - -
15.08.2019 17:00:00 - - - - - - -
15.08.2019 16:00:00 29,8 19,2 18 10 N 1015,1 -
15.08.2019 15:00:00 - - - - - - -
15.08.2019 14:00:00 - - - - - - -
15.08.2019 13:00:00 29,6 19,0 16 9 NNW 1015,9 10
15.08.2019 12:00:00 - - - - - - -
15.08.2019 11:00:00 - - - - - - -
15.08.2019 10:00:00 27,0 20,1 22 12 NW 1017,0 10
15.08.2019 09:00:00 - - - - - - -
15.08.2019 08:00:00 - - - - - - -
15.08.2019 07:00:00 25,3 19,9 26 14 NW 1016,5 10
15.08.2019 06:00:00 - - - - - - -
15.08.2019 05:00:00 - - - - - - -
15.08.2019 04:00:00 25,3 19,0 22 12 NW 1015,7 -
15.08.2019 03:00:00 - - - - - - -
15.08.2019 02:00:00 - - - - - - -
15.08.2019 01:00:00 26,2 18,3 28 15 NW 1016,1 -
15.08.2019 00:00:00 - - - - - - -
14.08.2019 23:00:00 - - - - - - -
14.08.2019 22:00:00 27,9 18,6 18 10 NNW 1016,6 -
14.08.2019 21:00:00 - - - - - - -
14.08.2019 20:00:00 - - - - - - -
14.08.2019 19:00:00 28,9 17,7 22 12 N 1014,8 -
14.08.2019 18:00:00 - - - - - - -
14.08.2019 17:00:00 - - - - - - -
14.08.2019 16:00:00 30,4 18,5 21 11 N 1014,6 -
14.08.2019 15:00:00 - - - - - - -
14.08.2019 14:00:00 - - - - - - -
14.08.2019 13:00:00 29,7 20,8 21 11 NNW 1015,4 10
14.08.2019 12:00:00 - - - - - - -
14.08.2019 11:00:00 - - - - - - -
14.08.2019 10:00:00 28,0 19,0 21 11 NW 1015,7 10
14.08.2019 09:00:00 - - - - - - -
14.08.2019 08:00:00 - - - - - - -
14.08.2019 07:00:00 27,4 18,7 22 12 NW 1014,4 10
14.08.2019 06:00:00 - - - - - - -
14.08.2019 05:00:00 - - - - - - -
14.08.2019 04:00:00 27,8 19,3 18 10 WNW 1013,0 -
14.08.2019 03:00:00 - - - - - - -
14.08.2019 02:00:00 - - - - - - -
14.08.2019 01:00:00 29,2 20,1 16 9 WNW 1012,8 -
14.08.2019 00:00:00 - - - - - - -
13.08.2019 23:00:00 - - - - - - -
13.08.2019 22:00:00 29,4 23,1 18 10 NNW 1013,0 -
13.08.2019 21:00:00 - - - - - - -
13.08.2019 20:00:00 - - - - - - -
13.08.2019 19:00:00 30,1 24,9 11 6 N 1011,3 -
13.08.2019 18:00:00 - - - - - - -
13.08.2019 17:00:00 - - - - - - -
13.08.2019 16:00:00 31,0 25,4 13 7 NE 1011,2 -
13.08.2019 15:00:00 - - - - - - -
13.08.2019 14:00:00 - - - - - - -
13.08.2019 13:00:00 - - - - - - -
13.08.2019 12:00:00 - - - - - - -
13.08.2019 11:00:00 - - - - - - -
13.08.2019 10:00:00 - - - - - - -
13.08.2019 09:00:00 - - - - - - -
13.08.2019 08:00:00 - - - - - - -
13.08.2019 07:00:00 28,6 25,6 11 6 NW 1012,0 10
13.08.2019 06:00:00 - - - - - - -
13.08.2019 05:00:00 - - - - - - -
13.08.2019 04:00:00 28,1 23,9 11 6 NW 1011,4 -
13.08.2019 03:00:00 - - - - - - -
13.08.2019 02:00:00 - - - - - - -
13.08.2019 01:00:00 28,9 25,7 8 4 NW 1012,2 -
13.08.2019 00:00:00 - - - - - - -
12.08.2019 23:00:00 - - - - - - -
12.08.2019 22:00:00 29,4 26,2 5 3 SSE 1012,3 -
12.08.2019 21:00:00 - - - - - - -
12.08.2019 20:00:00 - - - - - - -
12.08.2019 19:00:00 30,4 26,1 13 7 ESE 1010,6 -
12.08.2019 18:00:00 - - - - - - -
12.08.2019 17:00:00 - - - - - - -
12.08.2019 16:00:00 31,2 25,8 15 8 E 1010,9 -
12.08.2019 15:00:00 - - - - - - -
12.08.2019 14:00:00 - - - - - - -
12.08.2019 13:00:00 29,6 24,7 16 9 NE 1012,0 10
12.08.2019 12:00:00 - - - - - - -

tt = Température de l'air
td = dewpoint
ff = Vitesse du vent
dd = Direction du vent
ppp = reduced air pressure
vv = visibility

stations d'obs. à proximité